This is the latest recevied weather packets stored in our database for station/object K1BES. If no packets are shown the sender has not sent any weather packets the latest 1 day(s).
| Time | Temp. | Humidity | Pressure | Rain* | Wind** | Luminosity | Snow |
|---|---|---|---|---|---|---|---|
| 1778022602 | 25.56° C | 79% | 1016.3 hPa | 0 mm | 0.89 m/s, 353° | 45 W/m² | - |
| 1778022298 | 25.56° C | 78% | 1016.4 hPa | 0 mm | 0.89 m/s, 349° | 55 W/m² | - |
| 1778021994 | 25.56° C | 79% | 1016.4 hPa | 0 mm | 0.45 m/s, 12° | 64 W/m² | - |
| 1778021692 | 25.56° C | 78% | 1016.3 hPa | 0 mm | 1.34 m/s, 359° | 67 W/m² | - |
| 1778021388 | 25.56° C | 78% | 1016.3 hPa | 0 mm | 0.89 m/s, 25° | 65 W/m² | - |
| 1778021085 | 25.56° C | 79% | 1016 hPa | 0 mm | 0.45 m/s, 33° | 64 W/m² | - |
| 1778020782 | 25.56° C | 79% | 1016 hPa | 0 mm | 0.89 m/s, 2° | 66 W/m² | - |
| 1778020479 | 25.56° C | 78% | 1016.2 hPa | 0 mm | 0.89 m/s, 31° | 89 W/m² | - |
| 1778020175 | 25.56° C | 78% | 1016.2 hPa | 0 mm | 1.79 m/s, 10° | 102 W/m² | - |
| 1778019871 | 25.56° C | 78% | 1016.3 hPa | 0 mm | 1.79 m/s, 342° | 112 W/m² | - |
| 1778019567 | 26.11° C | 78% | 1016.2 hPa | 0 mm | 0.89 m/s, 1° | 127 W/m² | - |
| 1778019265 | 26.11° C | 78% | 1016.3 hPa | 0 mm | 0.89 m/s, 337° | 127 W/m² | - |
| 1778018962 | 26.11° C | 76% | 1016.1 hPa | 0 mm | 1.34 m/s, 19° | 115 W/m² | - |
| 1778018659 | 26.11° C | 77% | 1016 hPa | 0 mm | 1.34 m/s, 23° | 111 W/m² | - |
| 1778018356 | 26.11° C | 76% | 1016.2 hPa | 0 mm | 0.45 m/s, 34° | 104 W/m² | - |
| 1778018055 | 26.11° C | 75% | 1016 hPa | 0 mm | 0 m/s | 91 W/m² | - |
| 1778017752 | 26.67° C | 74% | 1016.1 hPa | 0 mm | 0.45 m/s, 349° | 81 W/m² | - |
| 1778017449 | 26.67° C | 74% | 1016.1 hPa | 0 mm | 0.89 m/s, 358° | 75 W/m² | - |
| 1778017147 | 26.67° C | 74% | 1016.1 hPa | 0 mm | 0.45 m/s, 337° | 71 W/m² | - |
| 1778016844 | 26.67° C | 74% | 1016.2 hPa | 0 mm | 1.79 m/s, 357° | 72 W/m² | - |
| 1778016540 | 26.67° C | 74% | 1016.1 hPa | 0 mm | 1.34 m/s, 335° | 81 W/m² | - |
| 1778016237 | 27.22° C | 73% | 1016.2 hPa | 0 mm | 0.89 m/s, 340° | 96 W/m² | - |
| 1778015934 | 27.22° C | 72% | 1016.2 hPa | 0 mm | 0.89 m/s, 355° | 197 W/m² | - |
| 1778015631 | 27.78° C | 71% | 1016.2 hPa | 0 mm | 0.45 m/s, 28° | 247 W/m² | - |
| 1778015327 | 27.78° C | 71% | 1016.2 hPa | 0 mm | 0.45 m/s, 316° | 501 W/m² | - |
* Rain latest hour (hover to see other rain measurements)
** Current wind speed in m/s (hover to see current wind gust speed)